sat.trackr.live / text

‹ back to catalog

CATSAT

NORAD 60246 · 2024-125J

PAYLOAD ACTIVE UNKNOWN

§ Identity

Operator
Country
US
Launch date
2024-07-04
Launch site
AFWTR
Launch vehicle
Mass (kg)
RCS (m²)

External: N2YO · Heavens-Above · Gunter

§ Orbital elements

Epoch: 2026-05-25T03:14:54.683232Z

Period
92.56 min
Inclination
97.2117°
Eccentricity
0.0021076
Mean motion
15.55814065 rev/d
Perigee alt
385.5 km
Apogee alt
414.1 km
Semi-major
6,777.9 km
B*
7.7694e-4
RAAN
357.3826°
Arg perigee
264.9784°
Mean anomaly
94.9065°
Rev number
10,380

§ Raw data

CATSAT1 60246U 24125J   26145.13535513  .00054369  00000+0  77694-3 0  99982 60246  97.2117 357.3826 0021076 264.9784  94.9065 15.55814065103802

JSON: /api/v1/satellites/60246 · /tle

For live sub-satellite position, see the globe view (requires WebGL).

§ Visibility from observer

Set your observer location to see the next 7 days of passes ≥ 10°. The values pass through the URL so the page stays shareable.

No JS? Fill the form by hand. The geolocation button needs JavaScript.

§ Radio — SatNOGS DB

ModeDescriptionDownlinkUplink
FSK AX.100 Mode 5 Mode U - FSK2k4 437.185 MHz
FSK AX.100 Mode 5 Mode U - FSK38k4 (inactive) 437.185 MHz
FSK AX.100 Mode 5 Mode U - FSK9k6 (inactive) 437.185 MHz
FSK AX.100 Mode 5 Mode U - GMSK4k8 - Transmitter Frequency after Reset (inactive) 437.250 MHz

4 transmitters · refreshed weekly from db.satnogs.org